Location: Bismarck
(46.7731°N, 100.8200°W)
Time: 06:31:55
(UTC-06:00)

ISS - Pass Details

Date: 01 December 2017
Orbit: 403 x 407 km, 51.6° (Epoch: 12 December)

Event Time Altitude Azimuth Distance (km) Brightness Sun altitude
Rises 19:32:15 0° 266° (W) 2,327 1.4 -25.8°
Reaches altitude 10° 19:34:24 10° 273° (W) 1,467 0.0 -26.2°
Enters shadow 19:35:55 23° 287° (WNW) 918 -1.4 -26.5°
